Data supplied by UK-AIR on 25/3/2020
All Data GMT hour ending 
Status: R =Ratified P=Provisional,P*=As supplied
,,Leominster,,,,,,,,,,,,,,,,,,,,,,,
Date,time,"Nitric oxide",status,unit,"Nitrogen dioxide",status,unit,"Nitrogen oxides as nitrogen dioxide",status,unit,"Ozone",status,unit
 
01-01-2019,01:00,0.35562,R,ugm-3,2.33068,R,ugm-3,2.87597,R,ugm-3,65.12634,R,ugm-3
01-01-2019,02:00,0.53344,R,ugm-3,2.97136,R,ugm-3,3.78928,R,ugm-3,62.81466,R,ugm-3
01-01-2019,03:00,0.05080,R,ugm-3,1.78760,R,ugm-3,1.86549,R,ugm-3,60.07057,R,ugm-3
01-01-2019,04:00,0.15241,R,ugm-3,3.80821,R,ugm-3,4.04190,R,ugm-3,43.45637,R,ugm-3
01-01-2019,05:00,0.35562,R,ugm-3,2.95251,R,ugm-3,3.49780,R,ugm-3,46.94884,R,ugm-3
01-01-2019,06:00,0.20321,R,ugm-3,1.00980,R,ugm-3,1.32139,R,ugm-3,54.28304,R,ugm-3
01-01-2019,07:00,0.20321,R,ugm-3,2.09800,R,ugm-3,2.40959,R,ugm-3,51.28949,R,ugm-3
01-01-2019,08:00,0.25402,R,ugm-3,3.10831,R,ugm-3,3.49780,R,ugm-3,52.33723,R,ugm-3
01-01-2019,09:00,0.40643,R,ugm-3,2.17506,R,ugm-3,2.79824,R,ugm-3,62.11616,R,ugm-3
01-01-2019,10:00,0.45723,R,ugm-3,1.94170,R,ugm-3,2.64278,R,ugm-3,57.62584,R,ugm-3
01-01-2019,11:00,0.40643,R,ugm-3,2.09733,R,ugm-3,2.72051,R,ugm-3,56.52820,R,ugm-3
01-01-2019,12:00,0.50803,R,ugm-3,2.48563,R,ugm-3,3.26461,R,ugm-3,53.88390,R,ugm-3
01-01-2019,13:00,0.57154,R,ugm-3,3.08782,R,ugm-3,3.96417,R,ugm-3,51.88820,R,ugm-3
01-01-2019,14:00,0.76205,R,ugm-3,4.31142,R,ugm-3,5.47988,R,ugm-3,53.83401,R,ugm-3
01-01-2019,15:00,0.87636,R,ugm-3,5.36038,R,ugm-3,6.70411,R,ugm-3,53.83401,R,ugm-3
01-01-2019,16:00,0.60964,R,ugm-3,4.83659,R,ugm-3,5.77137,R,ugm-3,62.61509,R,ugm-3
01-01-2019,17:00,0.34292,R,ugm-3,4.48770,R,ugm-3,5.01351,R,ugm-3,66.05767,R,ugm-3
01-01-2019,18:00,0.38103,R,ugm-3,4.25439,R,ugm-3,4.83862,R,ugm-3,70.74757,R,ugm-3
01-01-2019,19:00,0.68585,R,ugm-3,11.89023,R,ugm-3,12.94185,R,ugm-3,55.97939,R,ugm-3
01-01-2019,20:00,0.72395,R,ugm-3,10.84077,R,ugm-3,11.95081,R,ugm-3,54.38283,R,ugm-3
01-01-2019,21:00,0.76205,R,ugm-3,12.29805,R,ugm-3,13.46652,R,ugm-3,47.19831,R,ugm-3
01-01-2019,22:00,0.60964,R,ugm-3,12.18197,R,ugm-3,13.11674,R,ugm-3,38.81637,R,ugm-3
01-01-2019,23:00,0.91446,R,ugm-3,14.27963,R,ugm-3,15.68179,R,ugm-3,18.31055,R,ugm-3
01-01-2019,24:00,1.29549,R,ugm-3,17.54298,R,ugm-3,19.52937,R,ugm-3,9.08044,R,ugm-3
02-01-2019,01:00,6.65912,R,ugm-3,19.33970,R,ugm-3,29.55021,R,ugm-3,1.53004,R,ugm-3
02-01-2019,02:00,3.16435,R,ugm-3,16.20259,R,ugm-3,21.05452,R,ugm-3,1.44688,R,ugm-3
02-01-2019,03:00,5.90933,R,ugm-3,15.37640,R,ugm-3,24.43724,R,ugm-3,2.59441,R,ugm-3
02-01-2019,04:00,3.46935,R,ugm-3,13.40202,R,ugm-3,18.72161,R,ugm-3,1.54667,R,ugm-3
02-01-2019,05:00,1.60124,R,ugm-3,12.06718,R,ugm-3,14.52237,R,ugm-3,2.34495,R,ugm-3
02-01-2019,06:00,3.08810,R,ugm-3,10.95380,R,ugm-3,15.68883,R,ugm-3,0.89807,R,ugm-3
02-01-2019,07:00,6.70995,R,ugm-3,13.50725,R,ugm-3,23.79569,R,ugm-3,1.09764,R,ugm-3
02-01-2019,08:00,16.54613,R,ugm-3,15.74718,R,ugm-3,41.11756,R,ugm-3,0.44903,R,ugm-3
02-01-2019,09:00,58.29270,R,ugm-3,22.19058,R,ugm-3,111.57148,R,ugm-3,0.64860,R,ugm-3
02-01-2019,10:00,164.88944,R,ugm-3,47.71034,R,ugm-3,300.53728,R,ugm-3,1.64645,R,ugm-3
02-01-2019,11:00,31.41477,R,ugm-3,23.27676,R,ugm-3,71.44541,R,ugm-3,9.72904,R,ugm-3
02-01-2019,12:00,16.66051,R,ugm-3,21.92899,R,ugm-3,47.47474,R,ugm-3,12.32345,R,ugm-3
02-01-2019,13:00,3.96497,R,ugm-3,16.60802,R,ugm-3,22.68756,R,ugm-3,20.70539,R,ugm-3
02-01-2019,14:00,3.46935,R,ugm-3,22.50037,R,ugm-3,27.81997,R,ugm-3,25.19571,R,ugm-3
02-01-2019,15:00,2.82123,R,ugm-3,22.91091,R,ugm-3,27.23674,R,ugm-3,29.53636,R,ugm-3
02-01-2019,16:00,1.75374,R,ugm-3,17.31569,R,ugm-3,20.00471,R,ugm-3,21.10453,R,ugm-3
02-01-2019,17:00,7.54870,R,ugm-3,30.12628,R,ugm-3,41.70079,R,ugm-3,22.40173,R,ugm-3
02-01-2019,18:00,1.75374,R,ugm-3,23.43958,R,ugm-3,26.12861,R,ugm-3,40.76217,R,ugm-3
02-01-2019,19:00,1.18187,R,ugm-3,29.09890,R,ugm-3,30.91107,R,ugm-3,34.87486,R,ugm-3
02-01-2019,20:00,0.41937,R,ugm-3,10.14669,R,ugm-3,10.78972,R,ugm-3,59.12261,R,ugm-3
02-01-2019,21:00,0.57187,R,ugm-3,7.69659,R,ugm-3,8.57345,R,ugm-3,54.23315,R,ugm-3
02-01-2019,22:00,0.53375,R,ugm-3,9.44641,R,ugm-3,10.26481,R,ugm-3,52.63659,R,ugm-3
02-01-2019,23:00,0.61000,R,ugm-3,7.22988,R,ugm-3,8.16519,R,ugm-3,53.03573,R,ugm-3
02-01-2019,24:00,0.68625,R,ugm-3,10.08742,R,ugm-3,11.13965,R,ugm-3,48.64519,R,ugm-3
03-01-2019,01:00,0.61035,R,ugm-3,6.37721,R,ugm-3,7.31307,R,ugm-3,48.82813,R,ugm-3
03-01-2019,02:00,0.72479,R,ugm-3,5.01531,R,ugm-3,6.12664,R,ugm-3,54.83186,R,ugm-3
03-01-2019,03:00,0.38147,R,ugm-3,3.96631,R,ugm-3,4.55122,R,ugm-3,60.91874,R,ugm-3
03-01-2019,04:00,0.76294,R,ugm-3,7.64087,R,ugm-3,8.81069,R,ugm-3,62.66498,R,ugm-3
03-01-2019,05:00,0.49591,R,ugm-3,5.59965,R,ugm-3,6.36004,R,ugm-3,51.73852,R,ugm-3
03-01-2019,06:00,0.64850,R,ugm-3,5.89083,R,ugm-3,6.88518,R,ugm-3,60.41982,R,ugm-3
03-01-2019,07:00,1.14441,R,ugm-3,10.90699,R,ugm-3,12.66172,R,ugm-3,56.77767,R,ugm-3
03-01-2019,08:00,0.91552,R,ugm-3,11.78308,R,ugm-3,13.18686,R,ugm-3,55.82971,R,ugm-3
03-01-2019,09:00,1.10626,R,ugm-3,16.10019,R,ugm-3,17.79643,R,ugm-3,42.45852,R,ugm-3
03-01-2019,10:00,1.71661,R,ugm-3,18.37352,R,ugm-3,21.00562,R,ugm-3,38.11787,R,ugm-3
03-01-2019,11:00,0.87738,R,ugm-3,8.74907,R,ugm-3,10.09437,R,ugm-3,54.28304,R,ugm-3
03-01-2019,12:00,0.64850,R,ugm-3,5.01559,R,ugm-3,6.00994,R,ugm-3,60.17036,R,ugm-3
03-01-2019,13:00,0.57220,R,ugm-3,4.08229,R,ugm-3,4.95966,R,ugm-3,61.66713,R,ugm-3
03-01-2019,14:00,0.57220,R,ugm-3,4.31569,R,ugm-3,5.19306,R,ugm-3,62.31573,R,ugm-3
03-01-2019,15:00,0.49591,R,ugm-3,5.89140,R,ugm-3,6.65178,R,ugm-3,60.66928,R,ugm-3
03-01-2019,16:00,0.83923,R,ugm-3,8.98261,R,ugm-3,10.26942,R,ugm-3,52.63659,R,ugm-3
03-01-2019,17:00,1.22070,R,ugm-3,15.86637,R,ugm-3,17.73808,R,ugm-3,40.76217,R,ugm-3
03-01-2019,18:00,2.55584,R,ugm-3,34.59141,R,ugm-3,38.51031,R,ugm-3,18.51012,R,ugm-3
03-01-2019,19:00,10.45224,R,ugm-3,46.17343,R,ugm-3,62.19998,R,ugm-3,4.09119,R,ugm-3
03-01-2019,20:00,37.57466,R,ugm-3,48.63976,R,ugm-3,106.25343,R,ugm-3,1.34710,R,ugm-3
03-01-2019,21:00,33.18777,R,ugm-3,44.39663,R,ugm-3,95.28383,R,ugm-3,2.14538,R,ugm-3
03-01-2019,22:00,7.55308,R,ugm-3,33.69756,R,ugm-3,45.27878,R,ugm-3,4.24086,R,ugm-3
03-01-2019,23:00,16.93721,R,ugm-3,32.37893,R,ugm-3,58.34895,R,ugm-3,0.79828,R,ugm-3
03-01-2019,24:00,9.23154,R,ugm-3,29.66523,R,ugm-3,43.82006,R,ugm-3,2.99355,R,ugm-3
04-01-2019,01:00,2.18836,R,ugm-3,26.22129,R,ugm-3,29.57673,R,ugm-3,8.44846,R,ugm-3
04-01-2019,02:00,1.64127,R,ugm-3,21.35885,R,ugm-3,23.87542,R,ugm-3,9.13033,R,ugm-3
04-01-2019,03:00,1.56493,R,ugm-3,20.60027,R,ugm-3,22.99980,R,ugm-3,5.78753,R,ugm-3
04-01-2019,04:00,1.18324,R,ugm-3,15.75663,R,ugm-3,17.57091,R,ugm-3,4.19097,R,ugm-3
04-01-2019,05:00,1.64127,R,ugm-3,14.58733,R,ugm-3,17.10391,R,ugm-3,2.69420,R,ugm-3
04-01-2019,06:00,1.98479,R,ugm-3,14.52761,R,ugm-3,17.57091,R,ugm-3,4.64000,R,ugm-3
04-01-2019,07:00,7.40479,R,ugm-3,22.67885,R,ugm-3,34.03269,R,ugm-3,4.64000,R,ugm-3
04-01-2019,08:00,6.94676,R,ugm-3,24.49027,R,ugm-3,35.14182,R,ugm-3,4.98925,R,ugm-3
04-01-2019,09:00,41.45154,R,ugm-3,31.82680,R,ugm-3,95.38494,R,ugm-3,1.09764,R,ugm-3
04-01-2019,10:00,74.77307,R,ugm-3,36.24923,R,ugm-3,150.89967,R,ugm-3,2.14538,R,ugm-3
04-01-2019,11:00,63.78040,R,ugm-3,33.60714,R,ugm-3,131.40238,R,ugm-3,9.77893,R,ugm-3
04-01-2019,12:00,6.06887,R,ugm-3,19.53184,R,ugm-3,28.83731,R,ugm-3,24.84647,R,ugm-3
04-01-2019,13:00,7.40479,R,ugm-3,20.16871,R,ugm-3,31.52256,R,ugm-3,28.53851,R,ugm-3
04-01-2019,14:00,6.06887,R,ugm-3,21.98359,R,ugm-3,31.28906,R,ugm-3,24.89636,R,ugm-3
04-01-2019,15:00,2.74817,R,ugm-3,15.28349,R,ugm-3,19.49729,R,ugm-3,32.48002,R,ugm-3
04-01-2019,16:00,3.96958,R,ugm-3,17.38020,R,ugm-3,23.46680,R,ugm-3,25.19571,R,ugm-3
04-01-2019,17:00,35.00097,R,ugm-3,40.14140,R,ugm-3,93.80881,R,ugm-3,2.14538,R,ugm-3
04-01-2019,18:00,42.71111,R,ugm-3,48.40039,R,ugm-3,113.88985,R,ugm-3,1.29721,R,ugm-3
04-01-2019,19:00,17.90126,R,ugm-3,38.10704,R,ugm-3,65.55525,R,ugm-3,1.24731,R,ugm-3
04-01-2019,20:00,23.39760,R,ugm-3,34.64132,R,ugm-3,70.51714,R,ugm-3,1.54667,R,ugm-3
04-01-2019,21:00,31.98562,R,ugm-3,30.11272,R,ugm-3,79.15666,R,ugm-3,1.44688,R,ugm-3
04-01-2019,22:00,8.62620,R,ugm-3,24.01668,R,ugm-3,37.24332,R,ugm-3,3.09334,R,ugm-3
04-01-2019,23:00,4.27493,R,ugm-3,19.83076,R,ugm-3,26.38555,R,ugm-3,2.04559,R,ugm-3
04-01-2019,24:00,7.55746,R,ugm-3,18.82549,R,ugm-3,30.41344,R,ugm-3,1.74624,R,ugm-3
05-01-2019,01:00,1.68041,R,ugm-3,14.47658,R,ugm-3,17.05318,R,ugm-3,5.72101,R,ugm-3
05-01-2019,02:00,3.70454,R,ugm-3,16.62908,R,ugm-3,22.30929,R,ugm-3,2.24516,R,ugm-3
05-01-2019,03:00,2.97891,R,ugm-3,14.29602,R,ugm-3,18.86362,R,ugm-3,4.39054,R,ugm-3
05-01-2019,04:00,1.52765,R,ugm-3,12.31636,R,ugm-3,14.65872,R,ugm-3,4.59011,R,ugm-3
05-01-2019,05:00,2.63519,R,ugm-3,14.76465,R,ugm-3,18.80521,R,ugm-3,2.24516,R,ugm-3
05-01-2019,06:00,5.04123,R,ugm-3,17.26597,R,ugm-3,24.99575,R,ugm-3,2.49463,R,ugm-3
05-01-2019,07:00,7.21813,R,ugm-3,19.70984,R,ugm-3,30.77748,R,ugm-3,0.64860,R,ugm-3
05-01-2019,08:00,3.16987,R,ugm-3,17.79931,R,ugm-3,22.65970,R,ugm-3,3.44258,R,ugm-3
05-01-2019,09:00,10.84628,R,ugm-3,21.21330,R,ugm-3,37.84403,R,ugm-3,3.74194,R,ugm-3
05-01-2019,10:00,7.86738,R,ugm-3,15.56067,R,ugm-3,27.62381,R,ugm-3,20.30625,R,ugm-3
05-01-2019,11:00,0.84021,R,ugm-3,8.52312,R,ugm-3,9.81142,R,ugm-3,36.62110,R,ugm-3
05-01-2019,12:00,1.33669,R,ugm-3,10.74032,R,ugm-3,12.78988,R,ugm-3,33.02884,R,ugm-3
05-01-2019,13:00,1.03116,R,ugm-3,8.17192,R,ugm-3,9.75301,R,ugm-3,36.27185,R,ugm-3
05-01-2019,14:00,0.80201,R,ugm-3,8.46488,R,ugm-3,9.69461,R,ugm-3,41.31099,R,ugm-3
05-01-2019,15:00,0.99297,R,ugm-3,9.86572,R,ugm-3,11.38825,R,ugm-3,34.52561,R,ugm-3
05-01-2019,16:00,2.40604,R,ugm-3,16.75124,R,ugm-3,20.44045,R,ugm-3,21.55356,R,ugm-3
05-01-2019,17:00,6.26335,R,ugm-3,31.86125,R,ugm-3,41.46491,R,ugm-3,6.88517,R,ugm-3
05-01-2019,18:00,1.90956,R,ugm-3,25.57188,R,ugm-3,28.49983,R,ugm-3,21.55356,R,ugm-3
05-01-2019,19:00,0.76382,R,ugm-3,12.08591,R,ugm-3,13.25709,R,ugm-3,31.18281,R,ugm-3
05-01-2019,20:00,0.95478,R,ugm-3,11.90992,R,ugm-3,13.37389,R,ugm-3,31.78152,R,ugm-3
05-01-2019,21:00,0.38191,R,ugm-3,8.75862,R,ugm-3,9.34421,R,ugm-3,39.36518,R,ugm-3
05-01-2019,22:00,0.34372,R,ugm-3,4.96269,R,ugm-3,5.48972,R,ugm-3,45.70153,R,ugm-3
05-01-2019,23:00,0.26734,R,ugm-3,5.02141,R,ugm-3,5.43132,R,ugm-3,39.56475,R,ugm-3
05-01-2019,24:00,0.49649,R,ugm-3,2.97642,R,ugm-3,3.73768,R,ugm-3,46.54970,R,ugm-3
06-01-2019,01:00,0.25476,R,ugm-3,2.64761,R,ugm-3,3.03823,R,ugm-3,45.70153,R,ugm-3
06-01-2019,02:00,0.57320,R,ugm-3,2.74361,R,ugm-3,3.62250,R,ugm-3,46.69938,R,ugm-3
06-01-2019,03:00,0.19107,R,ugm-3,2.56998,R,ugm-3,2.86295,R,ugm-3,50.14196,R,ugm-3
06-01-2019,04:00,0.57320,R,ugm-3,3.32788,R,ugm-3,4.20678,R,ugm-3,41.36088,R,ugm-3
06-01-2019,05:00,0.61141,R,ugm-3,4.90526,R,ugm-3,5.84275,R,ugm-3,29.03744,R,ugm-3
06-01-2019,06:00,0.45856,R,ugm-3,6.07447,R,ugm-3,6.77758,R,ugm-3,23.64905,R,ugm-3
06-01-2019,07:00,0.49677,R,ugm-3,4.90576,R,ugm-3,5.66746,R,ugm-3,26.54281,R,ugm-3
06-01-2019,08:00,0.61141,R,ugm-3,8.29405,R,ugm-3,9.23154,R,ugm-3,36.07228,R,ugm-3
06-01-2019,09:00,0.57320,R,ugm-3,6.19083,R,ugm-3,7.06972,R,ugm-3,40.16346,R,ugm-3
06-01-2019,10:00,0.68784,R,ugm-3,8.35215,R,ugm-3,9.40682,R,ugm-3,25.64475,R,ugm-3
06-01-2019,11:00,1.10819,R,ugm-3,10.68743,R,ugm-3,12.38662,R,ugm-3,27.84002,R,ugm-3
06-01-2019,12:00,0.80248,R,ugm-3,5.72242,R,ugm-3,6.95287,R,ugm-3,38.56690,R,ugm-3
06-01-2019,13:00,0.84069,R,ugm-3,7.00765,R,ugm-3,8.29670,R,ugm-3,38.06798,R,ugm-3
06-01-2019,14:00,0.68784,R,ugm-3,6.24876,R,ugm-3,7.30343,R,ugm-3,35.87271,R,ugm-3
06-01-2019,15:00,0.68784,R,ugm-3,6.07348,R,ugm-3,7.12815,R,ugm-3,37.16991,R,ugm-3
06-01-2019,16:00,0.68784,R,ugm-3,9.46227,R,ugm-3,10.51694,R,ugm-3,29.43658,R,ugm-3
06-01-2019,17:00,1.64317,R,ugm-3,19.04024,R,ugm-3,21.55973,R,ugm-3,13.02194,R,ugm-3
06-01-2019,18:00,4.85309,R,ugm-3,25.45336,R,ugm-3,32.89465,R,ugm-3,14.16947,R,ugm-3
06-01-2019,19:00,0.72605,R,ugm-3,11.03964,R,ugm-3,12.15291,R,ugm-3,27.98969,R,ugm-3
06-01-2019,20:00,0.53499,R,ugm-3,8.52809,R,ugm-3,9.34839,R,ugm-3,34.57550,R,ugm-3
06-01-2019,21:00,0.19107,R,ugm-3,5.60821,R,ugm-3,5.90117,R,ugm-3,52.43702,R,ugm-3
06-01-2019,22:00,0.49677,R,ugm-3,3.26979,R,ugm-3,4.03150,R,ugm-3,56.87745,R,ugm-3
06-01-2019,23:00,0.26749,R,ugm-3,2.68650,R,ugm-3,3.09666,R,ugm-3,53.48476,R,ugm-3
06-01-2019,24:00,0.34392,R,ugm-3,2.68617,R,ugm-3,3.21351,R,ugm-3,49.89250,R,ugm-3
07-01-2019,01:00,0.25490,R,ugm-3,2.41493,R,ugm-3,2.80577,R,ugm-3,53.81738,R,ugm-3
07-01-2019,02:00,0.38235,R,ugm-3,2.97940,R,ugm-3,3.56567,R,ugm-3,51.38928,R,ugm-3
07-01-2019,03:00,0.30588,R,ugm-3,2.21985,R,ugm-3,2.68887,R,ugm-3,59.82111,R,ugm-3
07-01-2019,04:00,0.38235,R,ugm-3,1.40116,R,ugm-3,1.98742,R,ugm-3,62.56520,R,ugm-3
07-01-2019,05:00,0.15294,R,ugm-3,1.63601,R,ugm-3,1.87052,R,ugm-3,58.87315,R,ugm-3
07-01-2019,06:00,0.19118,R,ugm-3,2.45419,R,ugm-3,2.74732,R,ugm-3,52.18756,R,ugm-3
07-01-2019,07:00,0.15294,R,ugm-3,2.62972,R,ugm-3,2.86423,R,ugm-3,53.68433,R,ugm-3
07-01-2019,08:00,0.30588,R,ugm-3,3.03820,R,ugm-3,3.50722,R,ugm-3,59.57165,R,ugm-3
07-01-2019,09:00,0.42059,R,ugm-3,4.38212,R,ugm-3,5.02701,R,ugm-3,55.43057,R,ugm-3
07-01-2019,10:00,0.45883,R,ugm-3,3.79741,R,ugm-3,4.50093,R,ugm-3,54.13336,R,ugm-3
07-01-2019,11:00,0.38235,R,ugm-3,4.09002,R,ugm-3,4.67629,R,ugm-3,50.09207,R,ugm-3
07-01-2019,12:00,0.30588,R,ugm-3,3.44738,R,ugm-3,3.91639,R,ugm-3,53.03573,R,ugm-3
07-01-2019,13:00,0.65000,R,ugm-3,3.21201,R,ugm-3,4.20866,R,ugm-3,51.68863,R,ugm-3
07-01-2019,14:00,0.61177,R,ugm-3,3.67981,R,ugm-3,4.61784,R,ugm-3,55.63014,R,ugm-3
07-01-2019,15:00,0.49706,R,ugm-3,3.27115,R,ugm-3,4.03330,R,ugm-3,61.41767,R,ugm-3
07-01-2019,16:00,0.34412,R,ugm-3,2.80422,R,ugm-3,3.33186,R,ugm-3,61.81681,R,ugm-3
07-01-2019,17:00,0.45883,R,ugm-3,3.27132,R,ugm-3,3.97485,R,ugm-3,60.46971,R,ugm-3
07-01-2019,18:00,0.34412,R,ugm-3,3.79793,R,ugm-3,4.32557,R,ugm-3,59.62154,R,ugm-3
07-01-2019,19:00,0.57353,R,ugm-3,4.43988,R,ugm-3,5.31928,R,ugm-3,55.18111,R,ugm-3
07-01-2019,20:00,0.53530,R,ugm-3,5.31686,R,ugm-3,6.13763,R,ugm-3,61.51745,R,ugm-3
07-01-2019,21:00,0.34412,R,ugm-3,4.49937,R,ugm-3,5.02701,R,ugm-3,67.35488,R,ugm-3
07-01-2019,22:00,0.30588,R,ugm-3,2.74594,R,ugm-3,3.21495,R,ugm-3,75.98628,R,ugm-3
07-01-2019,23:00,0.34412,R,ugm-3,2.86267,R,ugm-3,3.39031,R,ugm-3,72.39402,R,ugm-3
07-01-2019,24:00,0.30588,R,ugm-3,3.56429,R,ugm-3,4.03330,R,ugm-3,65.90799,R,ugm-3
08-01-2019,01:00,0.20404,R,ugm-3,4.59944,R,ugm-3,4.91230,R,ugm-3,57.87530,R,ugm-3
08-01-2019,02:00,0.53561,R,ugm-3,3.85713,R,ugm-3,4.67838,R,ugm-3,61.61724,R,ugm-3
08-01-2019,03:00,0.38258,R,ugm-3,2.98066,R,ugm-3,3.56727,R,ugm-3,64.96004,R,ugm-3
08-01-2019,04:00,1.83636,R,ugm-3,10.10832,R,ugm-3,12.92403,R,ugm-3,57.72562,R,ugm-3
08-01-2019,05:00,0.87992,R,ugm-3,4.96662,R,ugm-3,6.31582,R,ugm-3,62.76477,R,ugm-3
08-01-2019,06:00,1.18598,R,ugm-3,6.60261,R,ugm-3,8.42109,R,ugm-3,63.11401,R,ugm-3
08-01-2019,07:00,0.53561,R,ugm-3,4.73433,R,ugm-3,5.55558,R,ugm-3,62.36563,R,ugm-3
08-01-2019,08:00,0.91818,R,ugm-3,10.81442,R,ugm-3,12.22228,R,ugm-3,57.67573,R,ugm-3
08-01-2019,09:00,2.41023,R,ugm-3,16.77230,R,ugm-3,20.46793,R,ugm-3,52.18756,R,ugm-3
08-01-2019,10:00,1.56856,R,ugm-3,11.45462,R,ugm-3,13.85971,R,ugm-3,57.52605,R,ugm-3
08-01-2019,11:00,1.72159,R,ugm-3,7.88663,R,ugm-3,10.52636,R,ugm-3,59.62154,R,ugm-3
08-01-2019,12:00,1.45379,R,ugm-3,6.42590,R,ugm-3,8.65501,R,ugm-3,65.10971,R,ugm-3
08-01-2019,13:00,1.18598,R,ugm-3,7.07044,R,ugm-3,8.88893,R,ugm-3,67.45466,R,ugm-3
08-01-2019,14:00,0.95644,R,ugm-3,6.25281,R,ugm-3,7.71933,R,ugm-3,68.30283,R,ugm-3
08-01-2019,15:00,0.91818,R,ugm-3,6.01908,R,ugm-3,7.42693,R,ugm-3,68.05337,R,ugm-3
08-01-2019,16:00,0.80341,R,ugm-3,7.59857,R,ugm-3,8.83045,R,ugm-3,67.50455,R,ugm-3
08-01-2019,17:00,0.99470,R,ugm-3,10.34622,R,ugm-3,11.87140,R,ugm-3,65.10971,R,ugm-3
08-01-2019,18:00,1.98939,R,ugm-3,24.37666,R,ugm-3,27.42702,R,ugm-3,51.73852,R,ugm-3
08-01-2019,19:00,1.72159,R,ugm-3,25.72296,R,ugm-3,28.36270,R,ugm-3,46.49981,R,ugm-3
08-01-2019,20:00,1.10947,R,ugm-3,15.55038,R,ugm-3,17.25154,R,ugm-3,59.67143,R,ugm-3
08-01-2019,21:00,0.38258,R,ugm-3,4.91049,R,ugm-3,5.49710,R,ugm-3,73.54155,R,ugm-3
08-01-2019,22:00,0.57386,R,ugm-3,5.96222,R,ugm-3,6.84214,R,ugm-3,69.50025,R,ugm-3
08-01-2019,23:00,0.38258,R,ugm-3,5.84617,R,ugm-3,6.43278,R,ugm-3,69.00133,R,ugm-3
08-01-2019,24:00,0.45909,R,ugm-3,5.37797,R,ugm-3,6.08190,R,ugm-3,67.55445,R,ugm-3
09-01-2019,01:00,0.20416,R,ugm-3,2.88529,R,ugm-3,3.19833,R,ugm-3,70.58126,R,ugm-3
09-01-2019,02:00,0.76559,R,ugm-3,8.01154,R,ugm-3,9.18544,R,ugm-3,42.25895,R,ugm-3
09-01-2019,03:00,0.53592,R,ugm-3,9.18279,R,ugm-3,10.00452,R,ugm-3,44.95314,R,ugm-3
09-01-2019,04:00,0.84215,R,ugm-3,9.59082,R,ugm-3,10.88211,R,ugm-3,56.07917,R,ugm-3
09-01-2019,05:00,1.37807,R,ugm-3,7.30645,R,ugm-3,9.41946,R,ugm-3,58.87315,R,ugm-3
09-01-2019,06:00,0.61248,R,ugm-3,11.87369,R,ugm-3,12.81280,R,ugm-3,42.15916,R,ugm-3
09-01-2019,07:00,0.76559,R,ugm-3,12.28248,R,ugm-3,13.45637,R,ugm-3,50.64089,R,ugm-3
09-01-2019,08:00,1.91398,R,ugm-3,22.92490,R,ugm-3,25.85963,R,ugm-3,37.91830,R,ugm-3
09-01-2019,09:00,36.82506,R,ugm-3,49.13894,R,ugm-3,105.60325,R,ugm-3,8.13248,R,ugm-3
09-01-2019,10:00,73.22905,R,ugm-3,57.61832,R,ugm-3,169.90129,R,ugm-3,12.72259,R,ugm-3
09-01-2019,11:00,5.16776,R,ugm-3,23.90345,R,ugm-3,31.82724,R,ugm-3,43.40648,R,ugm-3
09-01-2019,12:00,2.55198,R,ugm-3,12.54669,R,ugm-3,16.45968,R,ugm-3,55.53035,R,ugm-3
09-01-2019,13:00,1.93950,R,ugm-3,13.79784,R,ugm-3,16.77171,R,ugm-3,59.22240,R,ugm-3
09-01-2019,14:00,1.56947,R,ugm-3,10.11379,R,ugm-3,12.52027,R,ugm-3,61.81681,R,ugm-3
09-01-2019,15:00,1.41635,R,ugm-3,11.51869,R,ugm-3,13.69039,R,ugm-3,60.86885,R,ugm-3
09-01-2019,16:00,0.84215,R,ugm-3,9.94186,R,ugm-3,11.23314,R,ugm-3,60.07057,R,ugm-3
09-01-2019,17:00,2.98582,R,ugm-3,35.32287,R,ugm-3,39.90106,R,ugm-3,25.84432,R,ugm-3
09-01-2019,18:00,7.57938,R,ugm-3,46.18233,R,ugm-3,57.80388,R,ugm-3,13.02194,R,ugm-3
09-01-2019,19:00,24.53728,R,ugm-3,57.74140,R,ugm-3,95.36470,R,ugm-3,1.54667,R,ugm-3
09-01-2019,20:00,70.93226,R,ugm-3,56.63504,R,ugm-3,165.39633,R,ugm-3,1.34710,R,ugm-3
09-01-2019,21:00,83.83252,R,ugm-3,51.71544,R,ugm-3,180.25684,R,ugm-3,1.39699,R,ugm-3
09-01-2019,22:00,23.08265,R,ugm-3,36.62792,R,ugm-3,72.02083,R,ugm-3,2.19527,R,ugm-3
09-01-2019,23:00,18.87189,R,ugm-3,34.19143,R,ugm-3,63.12792,R,ugm-3,2.69420,R,ugm-3
09-01-2019,24:00,32.46118,R,ugm-3,33.53937,R,ugm-3,83.31248,R,ugm-3,1.64645,R,ugm-3
10-01-2019,01:00,25.48449,R,ugm-3,29.97457,R,ugm-3,69.05025,R,ugm-3,0.59871,R,ugm-3
10-01-2019,02:00,4.74962,R,ugm-3,24.11804,R,ugm-3,31.40068,R,ugm-3,5.63785,R,ugm-3
10-01-2019,03:00,5.51568,R,ugm-3,21.01017,R,ugm-3,29.46743,R,ugm-3,2.29506,R,ugm-3
10-01-2019,04:00,4.86453,R,ugm-3,18.02493,R,ugm-3,25.48376,R,ugm-3,5.63785,R,ugm-3
10-01-2019,05:00,1.14910,R,ugm-3,15.34441,R,ugm-3,17.10634,R,ugm-3,11.42538,R,ugm-3
10-01-2019,06:00,0.57455,R,ugm-3,7.55504,R,ugm-3,8.43600,R,ugm-3,25.44518,R,ugm-3
10-01-2019,07:00,0.68946,R,ugm-3,9.54643,R,ugm-3,10.60359,R,ugm-3,22.95055,R,ugm-3
10-01-2019,08:00,16.31723,R,ugm-3,31.33779,R,ugm-3,56.35719,R,ugm-3,2.54452,R,ugm-3
10-01-2019,09:00,18.50052,R,ugm-3,30.68496,R,ugm-3,59.05202,R,ugm-3,9.87872,R,ugm-3
10-01-2019,10:00,3.29409,R,ugm-3,16.62498,R,ugm-3,21.67584,R,ugm-3,19.60775,R,ugm-3
10-01-2019,11:00,20.87532,R,ugm-3,34.19081,R,ugm-3,66.19919,R,ugm-3,4.78968,R,ugm-3
10-01-2019,12:00,13.06144,R,ugm-3,27.71817,R,ugm-3,47.74543,R,ugm-3,12.52302,R,ugm-3
10-01-2019,13:00,2.41311,R,ugm-3,12.05887,R,ugm-3,15.75892,R,ugm-3,33.52776,R,ugm-3
10-01-2019,14:00,2.60463,R,ugm-3,14.63580,R,ugm-3,18.62951,R,ugm-3,29.63615,R,ugm-3
10-01-2019,15:00,8.69486,R,ugm-3,34.23776,R,ugm-3,47.56969,R,ugm-3,12.52302,R,ugm-3
10-01-2019,16:00,2.14499,R,ugm-3,18.38691,R,ugm-3,21.67584,R,ugm-3,22.25206,R,ugm-3
10-01-2019,17:00,1.41722,R,ugm-3,18.15538,R,ugm-3,20.32843,R,ugm-3,19.15872,R,ugm-3
10-01-2019,18:00,43.78072,R,ugm-3,40.13662,R,ugm-3,107.26613,R,ugm-3,3.39269,R,ugm-3
10-01-2019,19:00,35.66041,R,ugm-3,36.59433,R,ugm-3,91.27287,R,ugm-3,1.89592,R,ugm-3
10-01-2019,20:00,44.16376,R,ugm-3,32.22639,R,ugm-3,99.94321,R,ugm-3,0.24946,R,ugm-3
10-01-2019,21:00,4.74962,R,ugm-3,14.74470,R,ugm-3,22.02734,R,ugm-3,52.03788,R,ugm-3
10-01-2019,22:00,0.57455,R,ugm-3,6.96921,R,ugm-3,7.85017,R,ugm-3,64.71057,R,ugm-3
10-01-2019,23:00,0.53625,R,ugm-3,5.73910,R,ugm-3,6.56134,R,ugm-3,69.20090,R,ugm-3
10-01-2019,24:00,0.30643,R,ugm-3,3.74815,R,ugm-3,4.21800,R,ugm-3,66.75617,R,ugm-3
11-01-2019,01:00,0.15331,R,ugm-3,5.00529,R,ugm-3,5.24036,R,ugm-3,58.27444,R,ugm-3
11-01-2019,02:00,0.68989,R,ugm-3,6.21612,R,ugm-3,7.27393,R,ugm-3,54.88175,R,ugm-3
11-01-2019,03:00,0.68989,R,ugm-3,4.22166,R,ugm-3,5.27947,R,ugm-3,63.21380,R,ugm-3
11-01-2019,04:00,2.95118,R,ugm-3,13.01449,R,ugm-3,17.53957,R,ugm-3,58.32433,R,ugm-3
11-01-2019,05:00,0.95818,R,ugm-3,7.27127,R,ugm-3,8.74045,R,ugm-3,53.68433,R,ugm-3
11-01-2019,06:00,0.88152,R,ugm-3,8.85533,R,ugm-3,10.20697,R,ugm-3,56.67788,R,ugm-3
11-01-2019,07:00,0.91985,R,ugm-3,11.08433,R,ugm-3,12.49474,R,ugm-3,49.94239,R,ugm-3
11-01-2019,08:00,3.18114,R,ugm-3,32.25458,R,ugm-3,37.13226,R,ugm-3,27.84002,R,ugm-3
11-01-2019,09:00,5.17415,R,ugm-3,40.63753,R,ugm-3,48.57111,R,ugm-3,31.08303,R,ugm-3
11-01-2019,10:00,1.76304,R,ugm-3,20.76101,R,ugm-3,23.46430,R,ugm-3,39.66454,R,ugm-3
11-01-2019,11:00,1.64806,R,ugm-3,12.95945,R,ugm-3,15.48644,R,ugm-3,41.41078,R,ugm-3
11-01-2019,12:00,2.18464,R,ugm-3,16.30162,R,ugm-3,19.65135,R,ugm-3,46.69938,R,ugm-3
11-01-2019,13:00,1.37977,R,ugm-3,13.42948,R,ugm-3,15.54510,R,ugm-3,54.18326,R,ugm-3
11-01-2019,14:00,1.53308,R,ugm-3,12.95977,R,ugm-3,15.31046,R,ugm-3,54.18326,R,ugm-3
11-01-2019,15:00,1.18814,R,ugm-3,14.36859,R,ugm-3,16.19037,R,ugm-3,45.90110,R,ugm-3
11-01-2019,16:00,1.41810,R,ugm-3,16.30375,R,ugm-3,18.47814,R,ugm-3,37.76862,R,ugm-3
11-01-2019,17:00,0.95818,R,ugm-3,14.95583,R,ugm-3,16.42501,R,ugm-3,44.60390,R,ugm-3
11-01-2019,18:00,1.03483,R,ugm-3,14.72098,R,ugm-3,16.30769,R,ugm-3,43.00734,R,ugm-3
11-01-2019,19:00,1.03483,R,ugm-3,15.71821,R,ugm-3,17.30492,R,ugm-3,38.01809,R,ugm-3
11-01-2019,20:00,0.61323,R,ugm-3,11.78911,R,ugm-3,12.72939,R,ugm-3,40.86196,R,ugm-3
11-01-2019,21:00,0.57491,R,ugm-3,6.74439,R,ugm-3,7.62590,R,ugm-3,43.90540,R,ugm-3
11-01-2019,22:00,0.38327,R,ugm-3,4.92644,R,ugm-3,5.51411,R,ugm-3,46.00089,R,ugm-3
11-01-2019,23:00,0.49825,R,ugm-3,4.51550,R,ugm-3,5.27947,R,ugm-3,45.00304,R,ugm-3
11-01-2019,24:00,0.26829,R,ugm-3,3.10828,R,ugm-3,3.51965,R,ugm-3,46.54970,R,ugm-3
12-01-2019,01:00,0.46021,R,ugm-3,1.64388,R,ugm-3,2.34953,R,ugm-3,49.75945,R,ugm-3
12-01-2019,02:00,0.38351,R,ugm-3,1.82023,R,ugm-3,2.40826,R,ugm-3,51.13981,R,ugm-3
12-01-2019,03:00,0.30681,R,ugm-3,0.99803,R,ugm-3,1.46845,R,ugm-3,57.32648,R,ugm-3
12-01-2019,04:00,0.26846,R,ugm-3,1.11557,R,ugm-3,1.52719,R,ugm-3,54.23315,R,ugm-3
12-01-2019,05:00,0.23010,R,ugm-3,1.05690,R,ugm-3,1.40972,R,ugm-3,57.47616,R,ugm-3
12-01-2019,06:00,0.46021,R,ugm-3,1.29146,R,ugm-3,1.99710,R,ugm-3,47.74712,R,ugm-3
12-01-2019,07:00,0.23010,R,ugm-3,1.23311,R,ugm-3,1.58593,R,ugm-3,49.84261,R,ugm-3
12-01-2019,08:00,0.26846,R,ugm-3,1.99664,R,ugm-3,2.40826,R,ugm-3,51.83831,R,ugm-3
12-01-2019,09:00,0.23010,R,ugm-3,2.76030,R,ugm-3,3.11312,R,ugm-3,55.87960,R,ugm-3
12-01-2019,10:00,0.80536,R,ugm-3,5.75497,R,ugm-3,6.98984,R,ugm-3,56.57810,R,ugm-3
12-01-2019,11:00,0.46021,R,ugm-3,4.58079,R,ugm-3,5.28644,R,ugm-3,65.15961,R,ugm-3
12-01-2019,12:00,0.61361,R,ugm-3,3.81694,R,ugm-3,4.75779,R,ugm-3,68.70197,R,ugm-3
12-01-2019,13:00,0.65196,R,ugm-3,3.40570,R,ugm-3,4.40536,R,ugm-3,68.70197,R,ugm-3
12-01-2019,14:00,0.46021,R,ugm-3,3.40603,R,ugm-3,4.11167,R,ugm-3,68.70197,R,ugm-3
12-01-2019,15:00,0.46021,R,ugm-3,3.99341,R,ugm-3,4.69905,R,ugm-3,67.50455,R,ugm-3
12-01-2019,16:00,0.26846,R,ugm-3,4.05248,R,ugm-3,4.46410,R,ugm-3,65.80821,R,ugm-3
12-01-2019,17:00,0.26846,R,ugm-3,3.64131,R,ugm-3,4.05293,R,ugm-3,65.50885,R,ugm-3
12-01-2019,18:00,0.19175,R,ugm-3,3.34775,R,ugm-3,3.64177,R,ugm-3,64.56090,R,ugm-3
12-01-2019,19:00,0.42186,R,ugm-3,3.11240,R,ugm-3,3.75924,R,ugm-3,61.91659,R,ugm-3
12-01-2019,20:00,0.34516,R,ugm-3,2.93632,R,ugm-3,3.46555,R,ugm-3,65.65853,R,ugm-3
12-01-2019,21:00,0.30681,R,ugm-3,2.58396,R,ugm-3,3.05439,R,ugm-3,67.65423,R,ugm-3